Погода в Чокурдахе

Россия / Республика Саха (Якутия)     70°37′14″N   147°54′02″E
темп.,
°C
ветер,
м/с
пор.,
м/с
влажн.,
%
обл.,
%
осадки,
мм/ч
давл.,
гПа
погр.,
м
20 января, чт
чт2023:00−38ю22989 0.0 103213
02:00−37ююв22965 0.0 103110
05:00−37ююв229639 0.0 10309
08:00−36ю229651 0.0 102910
11:00−37ююв119785 0.0 10289
14:00−37ю119771 0.0 10269
17:00−37ю219772 0.0 10269
20:00−38ююз229869 0.0 102612
21 января, пт
пт2123:00−37ю339860 0.0 102637
02:00−38ююз33999 0.0 102639
05:00−38ю339967 0.0 102638
08:00−40ююз339941 0.0 102624
11:00−41ю2210053 0.0 102519
14:00−42ю2210084 0.0 102515
17:00−43ююз2210070 0.0 102510
20:00−42ююз2210092 0.0 102616
22 января, сб
сб2223:00−42ююз229974 0.0 102619
02:00−42ююз229997 0.0 102715
05:00−41ююз119995 0.0 10278
08:00−39ююв0099100 0.0 102713
11:00−33ссв2298100 0.0 102738
14:00−34ссв2298100 0.0 102617
17:00−33ссв1198100 0.0 102617
20:00−32св119884 0.0 10269
23 января, вс
вс2323:00−34св119983 0.0 10269
02:00−35всв1110066 0.0 10259
05:00−36юв1110027 0.0 10249
08:00−37юв1110022 0.0 10249
11:00−38юв1110021 0.0 10239
14:00−38юв0010027 0.0 10229
17:00−39в1110024 0.0 10229
20:00−39св1110034 0.0 10229
24 января, пн
пн2423:00−40с0010056 0.0 10228
02:00−40зсз0010054 0.0 10238
05:00−40з0010087 0.0 10238
08:00−37сз00100100 0.0 102314
11:00−33сз1110093 0.1 102314
14:00−32сз1110092 0.1 102317
17:00−31зсз1110097 0.1 102310
20:00−30з22100100 0.1 102321